BEIDOU IGSO-7

Last updated on Jan. 28, 2020, 4:41 a.m. UTC

1 43539U 18057A   20027.56443171 -.00000111  00000-0  00000+0 0  9990
2 43539  55.0413 183.5456 0025398 196.6543  61.6500  1.00260037  5762
UTC
Height (km)
Latitude
Longitude
Inclination
Orbital Period
UTC large
Height (km)
Speed (km/s)
/
Latitude / Longitude
Inclination (degrees)
Orbital Period (minutes)
Azimuth
Elevation
Range (km)
Doppler Factor
iOS Compass Heading
iOS Angle

Next 30 passes for location: Hong Kong

Rise time Rise Azimuth (degrees) Set time Set Azimuth (degrees) Duration Max altitude (degrees)

No matching passes for this satellites